AirNav   Air Wisconsin pilot careers
 
 855 users online  

M60 Woodruff County Airport
Augusta, Arkansas, USA

GOING TO AUGUSTA?


FAA INFORMATION EFFECTIVE 26 APRIL 2018

Location

FAA Identifier: M60
Lat/Long: 35-16-18.8600N / 091-16-13.1900W
35-16.314333N / 091-16.219833W
35.2719056 / -91.2703306
(estimated)
Elevation: 200 ft. / 61.0 m (surveyed)
Variation: 01W (2020)
From city: 4 miles E of AUGUSTA, AR
Time zone: UTC -5 (UTC -6 during Standard Time)
Zip code: 72006

Airport Operations

Airport use: Open to the public
Activation date: 11/1979
Control tower: no
ARTCC: MEMPHIS CENTER
FSS: JONESBORO FLIGHT SERVICE STATION
NOTAMs facility: JBR (NOTAM-D service available)
Attendance: UNATNDD
Wind indicator: lighted
Segmented circle: yes
Lights: ACTVT MIRL RY 09/27 - CTAF.
Beacon: white-green (lighted land airport)
Operates sunset to sunrise.

Airport Communications

CTAF: 122.9
  • APCH/DEP SVC PRVDD BY MEMPHIS ARTCC (ZME) ON 135.3/335.8 (BRINKLEY RCAG).

Nearby radio navigation aids

VOR radial/distance  VOR name  Freq  Var
GQEr259/39.0GILMORE VOR/DME113.0004E

Airport Services

Parking: tiedowns
Airframe service: NONE
Powerplant service: NONE

Runway Information

Runway 9/27

Dimensions: 3797 x 75 ft. / 1157 x 23 m
Surface: asphalt, in good condition
Runway edge lights: medium intensity
RUNWAY 9  RUNWAY 27
Latitude: 35-16.318367N35-16.310167N
Longitude: 091-16.601333W091-15.838333W
Elevation: 197.8 ft.198.1 ft.
Traffic pattern: leftleft
Markings: nonprecision, in good conditionnonprecision, in good condition
Visual slope indicator: 2-light PAPI on left (3.00 degrees glide path)2-light PAPI on left (3.04 degrees glide path)
Touchdown point: yes, no lightsyes, no lights
Obstructions: 4 ft. road, 300 ft. from runway, 25:1 slope to clear35 ft. trees, 950 ft. from runway, 400 ft. left of centerline, 21:1 slope to clear

Airport Ownership and Management from official FAA records

Ownership: Publicly-owned
Owner: WOODRUFF COUNTY
BOX 300
AUGUSTA, AR 72006
Phone 870-347-5206
Manager: CHARLES DALLAS - CO. JUDGE
P.O. BOX 300
AUGUSTA, AR 72006
Phone 870-731-5516

Airport Operational Statistics

Aircraft operations: avg 105/week *
91% local general aviation
9% transient general aviation
* for 12-month period ending 30 June 2017

Additional Remarks

DEER ON & INVOF ARPT.
15 FT WIDE DRAINAGE DITCH APROXLY 250 FT WEST OF RY 09 APCH.

Instrument Procedures

NOTE: All procedures below are presented as PDF files. If you need a reader for these files, you should download the free Adobe Reader.

NOT FOR NAVIGATION. Please procure official charts for flight.
FAA instrument procedures published for use from 26 April 2018 at 901Z to 24 May 2018 at 0900Z.

 
IAPs - Instrument Approach Procedures
RNAV (GPS)-A   download (156KB)
NOTE: Special Take-Off Minimums/Departure Procedures apply   download (263KB)

Other nearby airports with instrument procedures:

M19 - Newport Regional Airport (22 nm N)
KSRC - Searcy Municipal Airport (23 nm W)
KDRP - Delta Regional Airport (24 nm SE)
M36 - Frank Federer Memorial Airport (24 nm S)
KBVX - Batesville Regional Airport (33 nm NW)
 
Loc | Ops | Rwys | IFR | FBO | Links
Com | Nav | Svcs | Stats | Notes

AirNav Hotels Sweepstakes
 
Area around M60 (Woodruff County Airport)
 
Road maps at: MapQuest Bing Google
 
Aerial photo
WARNING: Photo may not be current or correct
Aerial photo of M60 (Woodruff County Airport)
Photo courtesy of the Arkansas Department of Aeronautics
Taken in the Spring of 2007

Do you have a better or more recent aerial photo of Woodruff County Airport that you would like to share? If so, please send us your photo.

 
Sectional chart

 
Airport distance calculator
Flying to Woodruff County Airport? Find the distance to fly.

From to M60

Sunrise and sunset
Times for 24-May-2018
 Local
(UTC-5)
 Zulu
(UTC)
Morning civil twilight05:2710:27
Sunrise05:5610:56
Sunset20:0801:08
Evening civil twilight20:3701:37

Current date and time
Zulu (UTC)  24-May-2018 12:08:02
Local (UTC-5)  24-May-2018 07:08:02
 
METAR
KM19 
22nm N 
241156Z AUTO 01004KT 10SM CLR 21/21 A3012 RMK AO2 SLP204 60022 70134 T02060206 10211 20206 53015 TSNO
KSRC 
23nm W 
241156Z AUTO 35003KT 9SM CLR 20/20 A3012 RMK AO2 SLP206 6//// 7//// T02000200 10200 20183 53012
KBVX 
32nm NW 
241202Z AUTO 00000KT 1/2SM FG BKN001 19/19 A3014 RMK AO2 RVRNO
KSGT 
43nm S 
241156Z AUTO 05006KT 5SM BR FEW004 21/21 A3011 RMK AO2 SLP195 70079 T02110211 10217 20211 53013 TSNO
TAF
KJBR 
45nm NE 
241135Z 2412/2512 VRB03KT P6SM VCTS BKN040CB TEMPO 2412/2414 4SM TSRA BKN035CB FM241500 08004KT P6SM VCSH SCT045 SCT250 FM241900 12005KT P6SM VCTS BKN050CB FM250300 VRB03KT P6SM VCSH SCT050 BKN250 FM250600 06003KT P6SM FEW040 SCT250
KLRF 
48nm SW 
241130Z 2411/2513 35006KT 9999 FEW150 QNH3005INS BECMG 2414/2415 34009KT 9999 FEW025 BKN055 QNH2999INS TEMPO 2418/2423 35025G35KT 8000 -TSRA BKN025CB BECMG 2509/2510 VRB06KT 8000 BR FEW050 SCT120 QNH3000INS BECMG 2511/2512 VRB06KT 9999 NSW FEW150 QNH2999INS TX31/2418Z TN19/2411Z
NOTAMs
Click for the latest NOTAMs
NOTAMs are issued by the DoD/FAA and will open in a separate window not controlled by AirNav.

 

 
 

Would you like to see your business listed on this page?

 If your business provides an interesting product or service to pilots, flight crews, aircraft, or users of the Woodruff County Airport, you should consider listing it here.  To start the listing process, click on the button below
 
Add a business
 

Other Pages about Woodruff County Airport

Update a link
 
Copyright © AirNav, LLC. All rights reserved. Privacy Policy  Contact